Location: Mohawk View
(42.7837°N, 73.7885°W)
Time: 09:25:43
(UTC+00:00)

Meteor 1-24 Rocket - Pass Details

Date: 26 October 2021
Orbit: 790 x 927 km, 81.3° (Epoch: 27 November)

Event Time Altitude Azimuth Distance (km) Brightness Sun altitude
Rises 10:33:37 0° 199° (SSW) 3,281 6.7 -9.5°
Reaches altitude 10° 10:36:00 10° 203° (SSW) 2,364 5.9 -9.1°
Maximum altitude 10:41:15 60° 283° (WNW) 929 3.7 -8.1°
Drops below altitude 10° 10:46:42 10° 3° (N) 2,447 6.0 -7.1°
Sets 10:49:12 0° 7° (N) 3,406 6.8 -6.7°
